Tracking 18945 objects as of 19-Jan-2018
HD Live streaming from Space Station
objects crossing your sky now

FENGYUN 1C DEB

Track FENGYUN 1C DEB now!
10-day predictions


NORAD ID: 30607
Int'l Code: 1999-025AMN
Perigee: 765.4 km
Apogee: 831.8 km
Inclination: 98.9 °
Period: 100.7 minutes
Semi major axis: 7169 km
RCS: 0.039 m2 (small)
Launch date: May 10, 1999
Source: People's Republic of China (PRC)
Launch site: Taiyaun Space Center, China (TSC)

Note: This is SATELLITE DEBRIS
aabbcc
Your satellite tracking list
Your tracking list is empty




NASA's NSSDC Master Catalog

Two Line Element Set (TLE):
1 30607U 99025AMN 18018.87702414 +.00001368 +00000-0 +54144-3 0  9991
2 30607 098.9171 079.6484 0046314 267.0116 092.5765 14.30072667564939
Source of the keplerian elements: AFSPC